1283472032556,97.7495
1283472092556,97.8119
1283472152556,97.9214
1283472212556,97.9869
1283472272556,97.8951
1283472332556,98.0718
1283472392556,97.9276
1283472452556,97.9084
1283472512556,97.9178
1283472572556,97.9179
1283472632556,98.0757
1283472692556,97.8906
1283472752556,98.2321
1283472812556,98.1247
1283472872556,98.0834
1283472932556,98.2079
1283472992556,97.9604
1283473052556,98.1469
1283473112556,98.0323
1283473172556,97.8184
1283473232556,98.0635
1283473292556,97.9242
1283473352556,98.0860
1283473412556,98.0010
1283473472556,98.6977
1283473532556,97.9587
1283473592556,97.9686
1283473652556,98.2314
1283473712556,98.1358
1283473772556,97.9592
1283473832556,98.1729
1283473892556,98.0431
1283473952556,98.1749
1283474012556,97.9752
1283474072556,97.9369
1283474132556,98.1755
1283474192556,97.8919
1283474252556,97.9152
1283474312556,98.1307
1283474372556,97.9097
1283474432556,97.9185
1283474492556,97.8168
1283474552556,97.8456
1283474612556,97.7794
1283474672556,97.8911
1283474732556,97.9991
1283474792556,98.0966
1283474852556,97.9996
1283474912556,98.0084
1283474972556,97.9567
1283475032556,98.0129
1283475092556,98.0907
1283475152556,97.9552
1283475212556,98.0315
1283475272556,98.1483
1283475332556,97.8557
1283475392556,98.1528
1283475452556,97.9729
1283475512556,98.2135
1283475572556,97.9478
1283475632565,98.1145
1283475692565,98.1835
1283475752565,98.0970
1283475812565,98.0831
1283475872565,97.8830
1283475932565,98.2161
1283475992565,98.0747
1283476052565,98.1011
1283476112565,97.8907
1283476172565,98.1433
1283476232565,97.9643
1283476292565,98.0296
1283476352565,97.8371
1283476412565,98.1081
1283476472565,98.1430
1283476532565,98.1125
1283476592565,98.3434
1283476652565,97.9242
1283476712565,97.9635
1283476772565,98.2285
1283476832565,98.1465
1283476892565,98.2215
1283476952565,98.3501
1283477012565,98.3040
1283477072565,97.9937
1283477132565,98.0658
1283477192565,98.0676
1283477252565,98.0378
1283477312565,97.9043
1283477372565,97.9763
1283477432565,98.0789
1283477492565,98.0351
1283477552565,98.0397
1283477612565,98.2574
1283477672565,98.0574
1283477732565,97.9563
1283477792565,98.1137
1283477852565,98.0811
1283477912565,98.1106
1283477972565,97.9639
1283478032565,97.9110
1283478092565,98.1801
1283478152565,98.1711
1283478212565,98.2399
1283478272565,97.9565
1283478332565,98.2951
1283478392565,98.1309
1283478452565,98.0577
1283478512565,97.9634
1283478572565,98.0510
1283478632565,97.8662
1283478692565,97.9913
1283478752565,98.2423
1283478812565,97.9329
1283478872565,98.1418
1283478932565,98.3759
1283478992565,97.9400
1283479052565,98.3089
1283479112565,98.0353
1283479172565,98.1774
1283479232574,98.0654
1283479292574,97.9741
1283479352574,97.9240
1283479412574,97.9633
1283479472574,98.3727
1283479532574,98.2263
1283479592574,98.0889
1283479652574,98.0990
1283479712574,98.0377
1283479772574,98.0085
1283479832574,97.9302
1283479892574,97.9152
1283479952574,98.2090
1283480012574,98.2539
1283480072574,98.0399
1283480132574,97.9529
1283480192574,97.9823
1283480252574,98.1312
1283480312574,98.0619
1283480372574,98.0974
1283480432574,98.0211
1283480492574,98.1645
1283480552574,97.9406
1283480612574,98.1110
1283480672574,97.9701
1283480732574,97.9088
1283480792574,97.8675
1283480852574,97.9527
1283480912574,97.9973
1283480972574,98.1221
1283481032574,97.9810
1283481092574,98.1206
1283481152574,98.0347
1283481212574,98.1728
1283481272574,98.1307
1283481332574,97.9580
1283481392574,98.0857
1283481452574,98.2680
1283481512574,97.9888
1283481572574,97.9236
1283481632574,98.2409
1283481692574,98.3010
1283481752574,97.9911
1283481812574,98.0544
1283481872574,98.1300
1283481932574,98.0057
1283481992574,97.9463
1283482052574,98.3161
1283482112574,98.2227
1283482172574,98.2756
1283482232574,98.0484
1283482292574,98.2435
1283482352574,98.1608
1283482412574,98.1726
1283482472574,98.1310
1283482532574,98.3169
1283482592574,98.3562
1283482652574,97.9804
1283482712574,98.1089
1283482772574,98.0510
1283482832583,98.3067
1283482892583,98.4339
1283482952583,98.3022
1283483012583,98.3051
1283483072583,98.1256
1283483132583,98.3366
1283483192583,98.3677
1283483252583,98.4739
1283483312583,98.3018
1283483372583,98.2265
1283483432583,98.2816
1283483492583,98.3606
1283483552583,98.3160
1283483612583,98.0793
1283483672583,98.2728
1283483732583,98.0850
1283483792583,98.3328
1283483852583,98.3548
1283483912583,98.1427
1283483972583,98.2653
1283484032583,98.4014
1283484092583,98.4315
1283484152583,98.3848
1283484212583,98.2630
1283484272583,98.0545
1283484332583,98.2742
1283484392583,98.2793
1283484452583,98.2961
1283484512583,98.1768
1283484572583,98.1109
1283484632583,98.2352
1283484692583,98.1077
1283484752583,98.3478
1283484812583,98.1981
1283484872583,98.2918
1283484932583,98.2423
1283484992583,98.2981
1283485052583,98.1975
1283485112583,98.3089
1283485172583,98.3926
1283485232583,98.2953
1283485292583,98.5732
1283485352583,98.2286
1283485412583,98.2152
1283485472583,98.2814
1283485532583,98.2690
1283485592583,98.4816
1283485652583,98.3340
1283485712583,98.3679
1283485772583,98.4146
1283485832583,98.3427
1283485892583,98.2834
1283485952583,98.5375
1283486012583,98.3671
1283486072583,98.3526
1283486132583,98.5216
1283486192583,98.2797
1283486252583,98.0894
1283486312583,98.5796
1283486372583,98.4734
1283486432592,98.4222
1283486492592,98.1875
1283486552592,98.2881
1283486612592,98.2513
1283486672592,98.3802
1283486732592,98.3802
1283486792592,98.2964
1283486852592,98.1545
1283486912592,98.2813
1283486972592,98.2005
1283487032592,98.3727
1283487092592,98.2180
1283487152592,98.4485
1283487212592,98.3889
1283487272592,98.3311
1283487332592,98.1040
1283487392592,98.0852
1283487452592,98.3131
1283487512592,98.4093
1283487572592,98.1509
1283487632592,98.1891
1283487692592,98.2909
1283487752592,98.2647
1283487812592,97.9705
1283487872592,98.2170
1283487932592,98.2655
1283487992592,98.4609
1283488052592,97.9759
1283488112592,98.2165
1283488172592,98.2155
1283488232592,98.0587
1283488292592,98.1680
1283488352592,98.3264
1283488412592,98.1981
1283488472592,98.3171
1283488532592,98.1920
1283488592592,98.1650
1283488652592,98.0537
1283488712592,98.4114
1283488772592,98.3083
1283488832592,98.1241
1283488892592,98.1794
1283488952592,98.1249
1283489012592,98.0440
1283489072592,98.2192
1283489132592,98.4434
1283489192592,98.2282
1283489252592,98.0716
1283489312592,98.1401
1283489372592,98.1954
1283489432592,98.3263
1283489492592,98.3164
1283489552592,98.2416
1283489612592,98.2791
1283489672592,98.2913
1283489732592,98.1700
1283489792592,98.2148
1283489852592,98.2581
1283489912592,97.9642
1283489972592,98.3279
1283490032601,98.2473
1283490092601,98.3286
1283490152601,98.3289
1283490212601,98.2703
1283490272601,98.4051
1283490332601,98.3487
1283490392601,98.2598
1283490452601,98.2605
1283490512601,98.1209
1283490572601,98.3647
1283490632601,98.2979
1283490692601,98.5104
1283490752601,98.2847
1283490812601,98.1477
1283490872601,98.1624
1283490932601,98.2559
1283490992601,98.1805
1283491052601,98.1553
1283491112601,98.4750
1283491172601,98.1468
1283491232601,98.4195
1283491292601,97.9757
1283491352601,98.1094
1283491412601,98.3456
1283491472601,98.2035
1283491532601,98.4878
1283491592601,98.3890
1283491652601,98.2066
1283491712601,98.2054
1283491772601,97.9959
1283491832601,98.1285
1283491892601,98.3166
1283491952601,98.2565
1283492012601,98.1952
1283492072601,98.4183
1283492132601,98.3735
1283492192601,98.2923
1283492252601,98.1192
1283492312601,98.1555
1283492372601,98.1163
1283492432601,98.4302
1283492492601,98.2318
1283492552601,98.2485
1283492612601,98.0825
1283492672601,98.2901
1283492732601,98.1951
1283492792601,98.2988
1283492852601,97.9316
1283492912601,98.6074
1283492972601,98.2517
1283493032601,98.0554
1283493092601,98.2781
1283493152601,98.2077
1283493212601,98.1648
1283493272601,98.4572
1283493332601,98.1203
1283493392601,98.4149
1283493452601,98.2230
1283493512601,98.2495
1283493572601,98.4155
1283493632610,98.1395
1283493692610,98.2584
1283493752610,98.1964
1283493812610,98.2499
1283493872610,98.3653
1283493932610,98.4704
1283493992610,98.3192
1283494052610,98.1728
1283494112610,98.3127
1283494172610,98.6866
1283494232610,98.5064
1283494292610,98.4354
1283494352610,98.3811
1283494412610,98.2995
1283494472610,98.4497
1283494532610,98.5374
1283494592610,98.4459
1283494652610,98.4978
1283494712610,98.5904
1283494772610,98.4529
1283494832610,98.5042
1283494892610,98.2348
1283494952610,98.4293
1283495012610,98.5539
1283495072610,98.4901
1283495132610,98.3272
1283495192610,98.2360
1283495252610,98.5905
1283495312610,98.3829
1283495372610,98.3086
1283495432610,98.3929
1283495492610,98.6503
1283495552610,98.6941
1283495612610,98.4550
1283495672610,98.4898
1283495732610,98.3879
1283495792610,98.4656
1283495852610,98.5829
1283495912610,98.7214
1283495972610,98.5007
1283496032610,98.6473
1283496092610,98.4508
1283496152610,98.4861
1283496212610,98.5351
1283496272610,98.4122
1283496332610,98.4778
1283496392610,98.5169
1283496452610,98.2925
1283496512610,98.4764
1283496572610,98.5308
1283496632610,98.6218
1283496692610,98.5065
1283496752610,98.4991
1283496812610,98.5224
1283496872610,98.5601
1283496932610,98.6700
1283496992610,98.5299
1283497052610,98.6238
1283497112610,98.4964
1283497172610,98.6154
1283497232619,98.4691
1283497292619,98.6228
1283497352619,98.6370
1283497412619,98.6589
1283497472619,98.4059
1283497532619,98.6121
1283497592619,98.5053
1283497652619,98.6309
1283497712619,98.4626
1283497772619,98.7084
1283497832619,98.6215
1283497892619,98.6264
1283497952619,98.7633
1283498012619,98.7430
1283498072619,98.7429
1283498132619,98.6715
1283498192619,98.3068
1283498252619,98.6528
1283498312619,98.5717
1283498372619,98.6337
1283498432619,98.7049
1283498492619,98.4457
1283498552619,98.7065
1283498612619,98.4556
1283498672619,98.6490
1283498732619,98.6747
1283498792619,98.8116
1283498852619,98.6459
1283498912619,98.6435
1283498972619,98.5816
1283499032619,98.7022
1283499092619,98.7120
1283499152619,98.4253
1283499212619,98.7006
1283499272619,98.6653
1283499332619,98.6899
1283499392619,98.7248
1283499452619,98.5336
1283499512619,98.6301
1283499572619,98.7169
1283499632619,98.6532
1283499692619,98.7516
1283499752619,98.6570
1283499812619,98.8467
1283499872619,98.7402
1283499932619,98.6779
1283499992619,98.7752
1283500052619,98.7799
1283500112619,98.9350
1283500172619,98.8608
1283500232619,98.7932
1283500292619,98.8518
1283500352619,98.8305
1283500412619,98.7606
1283500472619,98.8598
1283500532619,98.9617
1283500592619,98.7404
1283500652619,98.6892
1283500712619,98.8473
1283500772619,98.5124
1283500832628,98.6157
1283500892628,98.7768
1283500952628,98.7447
1283501012628,98.5926
1283501072628,98.9682
1283501132628,98.7552
1283501192628,98.8343
1283501252628,98.9684
1283501312628,98.8787
1283501372628,98.7931
1283501432628,98.7431
1283501492628,98.7215
1283501552628,98.8096
1283501612628,98.7241
1283501672628,98.7462
1283501732628,98.6395
1283501792628,98.7153
1283501852628,98.6649
1283501912628,98.5808
1283501972628,98.7203
1283502032628,98.8192
1283502092628,98.7604
1283502152628,98.8384
1283502212628,98.8404
1283502272628,98.5142
1283502332628,98.6336
1283502392628,98.7257
1283502452628,98.7552
1283502512628,98.6730
1283502572628,98.7868
1283502632628,98.8731
1283502692628,98.7588
1283502752628,98.7882
1283502812628,98.8221
1283502872628,98.9317
1283502932628,98.5917
1283502992628,98.8389
1283503052628,98.8647
1283503112628,98.8573
1283503172628,98.9189
1283503232628,98.5920
1283503292628,98.6973
1283503352628,98.8119
1283503412628,98.7712
1283503472628,98.7694
1283503532628,98.6921
1283503592628,98.6081
1283503652628,98.6199
1283503712628,98.7235
1283503772628,98.8295
1283503832628,98.7428
1283503892628,98.4954
1283503952628,98.6883
1283504012628,98.7144
1283504072628,98.8551
1283504132628,98.8467
1283504192628,98.9048
1283504252628,98.6470
1283504312628,98.7891
1283504372628,98.5900
1283504432637,98.8565
1283504492637,98.7434
1283504552637,98.8753
1283504612637,98.9579
1283504672637,98.9521
1283504732637,98.8127
1283504792637,98.7679
1283504852637,99.0278
1283504912637,98.8830
1283504972637,98.8886
1283505032637,98.9640
1283505092637,99.0626
1283505152637,98.9660
1283505212637,98.7677
1283505272637,98.8328
1283505332637,98.9419
1283505392637,99.0905
1283505452637,99.0141
1283505512637,98.8814
1283505572637,98.9617
1283505632637,99.0364
1283505692637,98.9204
1283505752637,98.7696
1283505812637,98.8380
1283505872637,98.8525
1283505932637,99.0005
1283505992637,98.8729
1283506052637,99.0186
1283506112637,98.9548
1283506172637,98.9165
1283506232637,98.7044
1283506292637,98.8330
1283506352637,98.6959
1283506412637,98.7051
1283506472637,98.8749
1283506532637,98.7869
1283506592637,98.8513
1283506652637,99.0871
1283506712637,98.7506
1283506772637,98.9229
1283506832637,98.9291
1283506892637,98.9307
1283506952637,98.8268
1283507012637,98.8361
1283507072637,98.6728
1283507132637,98.9955
1283507192637,98.8405
1283507252637,98.8506
1283507312637,98.8900
1283507372637,98.9145
1283507432637,98.9968
1283507492637,98.7535
1283507552637,98.5993
1283507612637,98.8989
1283507672637,98.9085
1283507732637,98.9466
1283507792637,99.0693
1283507852637,98.9710
1283507912637,98.9810
1283507972637,98.9608
1283508032646,98.7113
1283508092646,98.9865
1283508152646,98.7096
1283508212646,98.6842
1283508272646,98.6711
1283508332646,98.8428
1283508392646,98.8365
1283508452646,98.7945
1283508512646,99.0333
1283508572647,98.8005
1283508632647,98.9390
1283508692647,98.8940
1283508752647,98.7921
1283508812646,98.6936
1283508872646,98.6827
1283508932646,98.7682
1283508992646,98.7513
1283509052646,98.8754
1283509112646,98.8204
1283509172646,99.0128
1283509232646,98.7891
1283509292646,98.6788
1283509352646,98.8216
1283509412646,98.9436
1283509472646,98.8882
1283509532646,98.8256
1283509592646,98.6613
1283509652646,98.9330
1283509712646,98.8270
1283509772646,98.6736
1283509832646,98.7296
1283509892647,99.0004
1283509952647,98.7334
1283510012647,98.6992
1283510072647,98.7236
1283510132646,98.8520
1283510192646,98.9193
1283510252646,98.7621
1283510312646,98.8440
1283510372646,98.9323
1283510432646,98.6680
1283510492646,98.7734
1283510552646,98.8065
1283510612646,98.8606
1283510672646,98.8874
1283510732646,98.9233
1283510792646,98.7704
1283510852646,98.8384
1283510912646,98.6060
1283510972646,98.7655
1283511032646,98.9108
1283511092646,98.9199
1283511152646,98.7381
1283511212646,98.8222
1283511272647,98.8957
1283511332647,99.0534
1283511392647,98.7489
1283511452647,98.8689
1283511512646,98.8080
1283511572646,98.9474
1283511632656,98.8434
1283511692656,98.9339
1283511752656,98.8048
1283511812656,98.9980
1283511872656,98.9648
1283511932656,98.9552
1283511992656,98.9138
1283512052656,98.8730
1283512112656,99.2920
1283512172656,99.0755
1283512232656,98.8829
1283512292656,98.9566
1283512352656,98.9924
1283512412656,99.2323
1283512472656,98.8791
1283512532656,98.9649
1283512592656,99.0524
1283512652656,99.1698
1283512712656,99.0651
1283512772656,99.1932
1283512832656,98.7519
1283512892656,98.9440
1283512952656,98.9496
1283513012656,99.0277
1283513072656,99.0385
1283513132656,99.1231
1283513192656,99.0848
1283513252656,99.1524
1283513312656,99.2769
1283513372656,99.1547
1283513432656,98.9224
1283513492656,99.0525
1283513552656,99.1115
1283513612656,98.9986
1283513672656,99.1676
1283513732656,99.0374
1283513792656,99.2534
1283513852656,99.1011
1283513912656,99.3768
1283513972656,99.1774
1283514032656,99.0627
1283514092656,99.1005
1283514152656,99.1680
1283514212656,99.1283
1283514272656,99.0538
1283514332656,99.2055
1283514392656,99.3864
1283514452656,99.2536
1283514512656,99.2590
1283514572656,99.2127
1283514632656,99.1675
1283514692656,99.1833
1283514752656,99.0708
1283514812656,99.1935
1283514872656,99.1467
1283514932656,99.2659
1283514992656,99.0828
1283515052656,99.0122
1283515112656,98.9928
1283515172656,98.9918
1283515232666,99.1809
1283515292666,98.8695
1283515352666,99.0300
1283515412666,99.1093
1283515472666,98.6932
1283515532666,98.8235
1283515592666,98.9490
1283515652666,99.0457
1283515712666,98.8143
1283515772666,98.9419
1283515832666,98.7064
1283515892666,98.8723
1283515952666,98.8851
1283516012666,99.0617
1283516072666,98.9494
1283516132666,98.5534
1283516192666,99.0142
1283516252666,98.7487
1283516312666,98.7238
1283516372666,98.9225
1283516432666,98.8919
1283516492666,98.9462
1283516552666,98.8187
1283516612666,98.8354
1283516672666,98.8205
1283516732666,98.9559
1283516792666,98.8037
1283516852666,98.8830
1283516912666,99.0736
1283516972666,98.7487
1283517032666,98.7584
1283517092666,98.6990
1283517152666,98.8472
1283517212666,98.9098
1283517272666,98.8520
1283517332666,98.8005
1283517392666,98.7752
1283517452666,98.8162
1283517512666,98.8180
1283517572666,98.7743
1283517632666,98.9493
1283517692666,98.9591
1283517752666,98.8586
1283517812666,99.0143
1283517872666,98.8468
1283517932666,98.8386
1283517992666,98.8437
1283518052666,98.9050
1283518112666,98.8869
1283518172666,98.8008
1283518232666,98.8333
1283518292666,98.8247
1283518352666,98.9570
1283518412666,98.9391
1283518472666,99.0498
1283518532666,98.8432
1283518592666,98.8580
1283518652666,98.8547
1283518712666,98.7901
1283518772666,98.6954
1283518832675,98.6660
1283518892675,98.8809
1283518952675,98.7647
1283519012675,98.8509
1283519072675,98.6483
1283519132675,98.7095
1283519192675,98.7006
1283519252675,98.6151
1283519312675,98.5472
1283519372675,99.0338
1283519432675,98.6880
1283519492675,98.7123
1283519552675,98.7516
1283519612675,98.7459
1283519672675,98.9167
1283519732675,98.8959
1283519792675,98.8403
1283519852675,98.8541
1283519912675,98.8178
1283519972675,98.7819
1283520032675,98.7709
1283520092675,98.9141
1283520152675,98.6495
1283520212675,98.8839
1283520272675,98.5005
1283520332675,98.5708
1283520392675,98.6237
1283520452675,98.7346
1283520512675,98.6573
1283520572675,98.8437
1283520632675,98.7706
1283520692675,98.6834
1283520752675,98.4653
1283520812675,98.6072
1283520872675,98.7202
1283520932675,98.4865
1283520992675,98.6828
1283521052675,98.6294
1283521112675,98.5611
1283521172675,98.5985
1283521232675,98.6718
1283521292675,98.5080
1283521352675,98.6247
1283521412675,98.9113
1283521472675,98.5994
1283521532675,98.6987
1283521592675,98.7393
1283521652675,98.7546
1283521712675,98.7035
1283521772675,98.7574
1283521832675,98.7666
1283521892675,98.8551
1283521952675,98.7371
1283522012675,98.6183
1283522072675,98.6243
1283522132675,98.5694
1283522192675,98.6611
1283522252675,98.6105
1283522312675,98.7542
1283522372675,98.5855
1283522432685,98.7104
1283522492685,98.4987
1283522552685,98.8131
1283522612685,98.5177
1283522672685,98.8103
1283522732685,98.5777
1283522792685,98.8276
1283522852685,98.7901
1283522912685,98.5347
1283522972685,98.7257
1283523032685,98.7028
1283523092685,98.8092
1283523152685,98.7448
1283523212685,98.5456
1283523272685,98.7979
1283523332685,98.7300
1283523392685,98.7104
1283523452685,98.4630
1283523512685,98.5424
1283523572685,98.4769
1283523632685,98.5301
1283523692685,98.4957
1283523752685,98.5892
1283523812685,98.7339
1283523872685,98.6068
1283523932685,98.6755
1283523992685,98.7313
1283524052685,98.3597
1283524112685,98.4217
1283524172685,98.6296
1283524232685,98.4935
1283524292685,98.3766
1283524352685,98.8080
1283524412685,98.6194
1283524472685,98.6489
1283524532685,98.4141
1283524592685,98.3301
1283524652685,98.4400
1283524712685,98.4096
1283524772685,98.6119
1283524832685,98.4196
1283524892685,98.5227
1283524952685,98.4771
1283525012685,98.2966
1283525072685,98.4314
1283525132685,98.5235
1283525192685,98.5799
1283525252685,98.4573
1283525312685,98.4591
1283525372685,98.3665
1283525432685,98.3379
1283525492685,98.3724
1283525552685,98.2644
1283525612685,98.3008
1283525672685,98.1046
1283525732685,98.2519
1283525792685,98.2162
1283525852685,98.2625
1283525912685,98.3573
1283525972685,98.0847
1283526032695,98.1185
1283526092695,98.1998
1283526152695,98.1640
1283526212695,98.2433
1283526272695,98.0870
1283526332695,98.1784
1283526392695,97.9603
1283526452695,98.1511
1283526512695,97.9150
1283526572695,98.0325
1283526632695,98.2544
1283526692695,98.0878
1283526752695,97.8572
1283526812695,97.9885
1283526872695,97.9343
1283526932695,97.7563
1283526992695,97.8962
1283527052695,97.9691
1283527112695,97.8211
1283527172695,97.7408
1283527232695,97.7815
1283527292695,97.8949
1283527352695,97.7143
1283527412695,97.7956
1283527472695,97.9517
1283527532695,97.6229
1283527592695,97.8457
1283527652695,97.7555
1283527712695,97.9232
1283527772695,97.7096
1283527832695,97.9162
1283527892695,97.7444
1283527952695,97.7655
1283528012695,97.7904
1283528072695,97.6509
1283528132695,98.0071
1283528192695,97.8510
1283528252695,97.7135
1283528312695,97.7317
1283528372695,97.7421
1283528432695,97.8159
1283528492695,97.9311
1283528552695,97.8025
1283528612695,97.8313
1283528672695,97.9088
1283528732695,97.7239
1283528792695,97.6320
1283528852695,97.8939
1283528912695,97.6217
1283528972695,97.8983
1283529032695,97.6385
1283529092695,97.6660
1283529152695,97.7313
1283529212695,97.7104
1283529272695,97.7095
1283529332695,97.6180
1283529392695,97.7600
1283529452695,97.8406
1283529512695,97.7101
1283529572695,97.9392
1283529632706,97.9973
1283529692706,97.8139
1283529752706,97.7823
1283529812706,97.7577
1283529872706,97.7175
1283529932706,97.9957
1283529992706,97.7365
1283530052706,97.7274
1283530112706,97.6799
1283530172706,97.9548
1283530232706,97.7257
1283530292706,97.7285
1283530352706,97.8701
1283530412706,97.5848
1283530472706,97.5401
1283530532706,97.6608
1283530592706,97.5653
1283530652706,97.5367
1283530712706,97.5445
1283530772706,97.7712
1283530832706,97.6758
1283530892706,97.6470
1283530952706,97.8080
1283531012706,97.7531
1283531072706,97.7613
1283531132706,97.5268
1283531192706,97.9186
1283531252706,97.6307
1283531312706,97.5463
1283531372706,97.7589
1283531432706,97.7679
1283531492706,97.7649
1283531552706,97.6252
1283531612706,97.4673
1283531672706,97.6962
1283531732706,97.7886
1283531792706,97.7204
1283531852706,97.7215
1283531912706,97.6715
1283531972706,97.5005
1283532032706,97.5219
1283532092706,97.9616
1283532152706,97.6753
1283532212706,97.6247
1283532272706,97.6160
1283532332706,97.5154
1283532392706,97.8399
1283532452706,97.7394
1283532512706,97.3857
1283532572706,97.5722
1283532632706,97.6487
1283532692706,97.4933
1283532752706,97.4731
1283532812706,97.5464
1283532872706,97.5995
1283532932706,97.4808
1283532992706,97.5127
1283533052706,97.6579
1283533112706,97.6945
1283533172706,97.4135
1283533232736,97.6697
1283533292736,97.6072
1283533352736,97.6771
1283533412736,97.5781
1283533472736,97.5617
1283533532736,97.7805
1283533592736,97.5925
1283533652736,97.7152
1283533712736,97.6644
1283533772736,97.7402
1283533832736,97.6273
1283533892736,97.6805
1283533952736,97.6875
1283534012736,97.6294
1283534072736,97.7153
1283534132736,97.8802
1283534192736,97.7732
1283534252736,97.7801
1283534312736,97.5950
1283534372736,97.7370
1283534432736,97.9245
1283534492736,97.7667
1283534552736,97.9332
1283534612736,97.8847
1283534672736,97.7340
1283534732736,97.8312
1283534792736,97.7759
1283534852736,98.0544
1283534912736,97.7915
1283534972736,97.7341
1283535032736,97.7487
1283535092736,97.8561
1283535152736,97.8739
1283535212736,98.0060
1283535272736,97.7792
1283535332736,97.8363
1283535392736,98.0280
1283535452736,97.8683
1283535512736,97.9693
1283535572736,97.8876
1283535632736,98.1280
1283535692736,98.0198
1283535752736,97.9141
1283535812736,98.0303
1283535872736,98.1945
1283535932736,97.9974
1283535992736,98.3179
1283536052736,98.3252
1283536112736,98.2636
1283536172736,98.3107
1283536232736,97.8253
1283536292736,98.3594
1283536352736,98.1506
1283536412736,98.1569
1283536472736,98.0947
1283536532736,98.1327
1283536592736,98.3820
1283536652736,98.1547
1283536712736,98.1900
1283536772736,98.0650
1283536832747,98.3472
1283536892747,98.1495
1283536952747,98.4676
1283537012747,98.2819
1283537072747,98.0408
1283537132747,98.2595
1283537192747,98.2106
1283537252747,98.2248
1283537312747,98.2067
1283537372747,98.3423